SCP
0 0 0 0 0 0 0 0 0 0 0 0 0 0 0 0 0 0 0 0 0 0 0 0 0 0 0 0 0 0 0 0 0 0 0 0 0 0 0 0 0 0 0
0 0 0 0 0 0 0 0 0 0 0 0 0 0 0 0 0 0 0 0 0 0 0 0 0 0 0 0 0 0 0 0 0 0 0 0 0 0 0 0 0 0 0
0 0 0 0 0 0 0 0 0 0 0 0 0 0 0 0 0 0 0 0 0 0 0 0 0 0 0 0 0 0 0 0 0 0 0 0 0 0 0 0 0 0 0
0 0 0 0 0 0 0 0 0 0 0 0 0 0 0 0 0 0 0 0 0 0 0 0 0 0 0 0 0 0 0 0 0 0 0 0 0 0 0 0 0 0 0
0 0 0 0 0 0 0 0 0 0 0 0 0 0 0 0 0 0 0 0 0 0 0 0 0 0 0 0 0 0 0 0 0 0 0 0 0 0 0 0 0 0 0
0 0 0 0 0 0 0 0 0 0 0 0 0 0 0 0 0 0 0 0 0 0 0 0 0 0 0 0 0 0 0 0 0 0 0 0 0 0 0 0 0 0 0
0 0 0 0 0 0 0 0 0 0 0 0 0 0 0 0 0 0 0 0 0 0 0 0 0 0 0 0 0 0 0 0 0 0 0 0 0 0 0 0 0 0 0
0 0 0 0 0 0 0 0 0 0 0 0 0 0 0 0 0 0 0 0 0 0 0 0 0 0 0 0 0 0 0 0 0 0 0 0 0 0 0 0 0 0 0
0 0 0 0 0 0 0 0 0 0 0 0 0 0 0 0 0 0 0 0 0 0 0 0 0 0 0 0 0 0 0 0 0 0 0 0 0 0 0 0 0 0 0
0 0 0 0 0 0 0 0 0 0 0 0 0 0 0 0 0 0 0 0 0 0 0 0 0 0 0 0 0 0 0 0 0 0 0 0 0 0 0 0 0 0 0
0 0 0 0 0 0 0 0 0 0 0 0 0 0 0 0 0 0 0 0 0 0 0 0 0 0 0 0 0 0 0 0 0 0 0 0 0 0 0 0 0 0 0
0 0 0 0 0 0 0 0 0 0 0 0 0 0 0 0 0 0 0 0 0 0 0 0 0 0 0 0 0 0 0 0 0 0 0 0 0 0 0 0 0 0 0
0 0 0 0 0 0 0 0 0 0 0 0 0 0 0 0 0 0 0 0 0 0 0 0 0 0 0 0 0 0 0 0 0 0 0 0 0 0 0 0 0 0 0
0 0 0 0 0 0 0 0 0 0 0 0 0 0 0 0 0 0 0 0 0 0 0 0 0 0 0 0 0 0 0 0 0 0 0 0 0 0 0 0 0 0 0
0 0 0 0 0 0 0 0 0 0 0 0 0 0 0 0 0 0 0 0 0 0 0 0 0 0 0 0 0 0 0 0 0 0 0 0 0 0 0 0 0 0 0
0 0 0 0 0 0 0 0 0 0 0 0 0 0 0 0 0 0 0 0 0 0 0 0 0 0 0 0 0 0 0 0 0 0 0 0 0 0 0 0 0 0 0
0 0 0 0 0 0 0 0 0 0 0 0 0 0 0 0 0 0 0 0 0 0 0 0 0 0 0 0 0 0 0 0 0 0 0 0 0 0 0 0 0 0 0
0 0 0 0 0 0 0 0 0 0 0 0 0 0 0 0 0 0 0 0 0 0 0 0 0 0 0 0 0 0 0 0 0 0 0 0 0 0 0 0 0 0 0
0 0 0 0 0 0 0 0 0 0 0 0 0 0 0 0 0 0 0 0 0 0 0 0 0 0 0 0 0 0 0 0 0 0 0 0 0 0 0 0 0 0 0
0 0 0 0 0 0 0 0 0 0 0 0 0 0 0 0 0 0 0 0 0 0 0 0 0 0 0 0 0 0 0 0 0 0 0 0 0 0 0 0 0 0 0
0 0 0 0 0 0 0 0 0 0 0 0 0 0 0 0 0 0 0 0 0 0 0 0 0 0 0 0 0 0 0 0 0 0 0 0 0 0 0 0 0 0 0
0 0 0 0 0 0 0 0 0 0 0 0 0 0 0 0 0 0 0 0 0 0 0 0 0 0 0 0 0 0 0 0 0 0 0 0 0 0 0 0 0 0 0
0 0 0 0 0 0 0 0 0 0 0 0 0 0 0 0 0 0 0 0 0 0 0 0 0 0 0 0 0 0 0 0 0 0 0 0 0 0 0 0 0 0 0
0 0 0 0 0 0 0 0 0 0 0 0 0 0 0 0 0 0 0 0 0 0 0 0 0 0 0 0 0 0 0 0 0 0 0 0 0 0 0 0 0 0 0
0 0 0 0 0 0 0 0 0 0 0 0 0 0 0 0 0 0 0 0 0 0 0 0 0 0 0 0 0 0 0 0 0 0 0 0 0 0 0 0 0 0 0
0 0 0 0 0 0 0 0 0 0 0 0 0 0 0 0 0 0 0 0 0 0 0 0 0 0 0 0 0 0 0 0 0 0 0 0 0 0 0 0 0 0 0
Wind_Speed
6 6 6 7 6 6 6 6 5 5 5 5 5 4 4 4 5 4 4 4 4 4 4 4 3 2 2 2 2 2 2 3 3 2 1 2 2 2 2 2 2 3 3
5 5 6 6 6 7 7 6 6 5 5 5 5 5 5 5 5 5 5 5 5 5 4 4 4 3 3 3 2 3 3 3 3 3 2 2 3 2 2 3 2 2 2
5 5 5 6 6 6 6 6 6 6 6 6 6 6 5 5 5 5 6 5 5 5 5 5 4 4 4 3 4 3 3 3 3 3 3 2 3 2 3 3 3 2 3
5 5 5 5 5 5 5 5 6 6 7 7 6 6 6 6 6 6 6 5 5 5 5 5 5 5 5 4 4 4 3 3 4 4 3 3 3 3 3 3 3 3 3
5 5 5 5 5 5 5 5 5 5 6 6 6 6 6 5 5 6 6 6 6 5 5 5 5 3 3 3 3 4 4 4 4 4 4 4 4 4 4 3 3 3 3
5 5 4 5 4 5 5 5 5 5 6 5 6 6 6 5 4 5 6 6 6 6 6 5 5 5 5 6 6 5 5 5 5 5 4 5 5 4 3 4 3 4 3
4 4 4 4 5 5 5 5 5 5 5 5 6 6 6 5 6 6 7 7 6 6 6 5 4 4 5 6 7 9 8 7 7 7 6 6 5 4 5 5 4 4 4
4 4 4 4 4 5 5 5 5 5 5 5 5 5 5 4 6 7 7 8 6 6 6 6 6 6 5 5 5 5 5 5 6 7 7 6 5 4 4 4 4 4 4
3 4 5 5 4 5 5 5 5 5 5 5 5 5 5 5 6 7 7 6 6 6 6 5 6 6 3 5 6 6 5 4 3 4 4 4 2 2 3 3 4 4 4
4 4 4 4 5 5 5 5 4 4 5 4 4 5 5 5 5 6 7 5 5 5 4 5 4 5 3 5 6 6 6 5 4 5 5 6 6 5 6 6 5 5 4
3 4 4 4 5 5 5 4 4 4 4 4 4 4 5 4 5 6 7 5 5 5 4 4 3 4 5 5 6 5 4 4 4 4 4 4 4 4 4 5 5 4 4
3 3 4 4 4 4 4 4 4 4 4 4 4 4 3 3 4 5 6 6 5 5 4 3 3 4 5 6 5 4 4 5 4 4 4 4 4 3 3 4 4 4 4
3 3 3 4 4 4 4 4 4 4 4 4 4 3 3 2 3 5 6 6 5 4 3 2 2 3 5 5 6 6 6 5 4 4 4 4 4 3 3 3 4 4 4
3 3 3 3 4 4 3 4 4 4 4 4 4 4 3 3 3 3 3 4 4 4 3 3 3 4 4 3 4 5 5 4 4 5 4 4 3 3 3 3 4 3 3
3 3 3 3 3 3 3 2 4 3 3 4 4 4 4 4 3 3 3 3 3 3 3 3 4 4 4 4 4 4 4 4 4 4 4 4 4 3 3 3 3 4 4
3 3 2 2 2 3 3 2 0 1 0 1 2 3 3 2 3 4 4 3 3 3 3 4 4 4 5 5 5 4 4 4 4 4 5 5 4 4 4 3 3 4 4
4 3 2 3 3 3 4 4 3 2 1 2 3 3 4 3 4 5 5 4 4 5 4 4 4 4 4 4 4 5 4 4 4 4 5 5 5 4 4 4 4 4 5
4 3 3 3 3 3 4 4 3 3 3 2 3 4 5 5 5 5 5 4 4 5 5 5 4 4 4 4 4 4 4 4 4 4 4 4 4 4 4 5 5 5 5
4 3 3 3 3 3 3 3 4 4 3 3 2 3 4 5 5 4 5 4 4 4 4 4 4 4 4 4 4 4 4 4 5 4 4 4 4 4 5 5 5 5 5
3 3 3 3 3 3 3 3 3 4 3 3 3 3 3 3 3 4 5 4 4 4 4 4 4 4 4 4 4 4 4 4 5 5 4 4 4 4 5 6 5 5 5
3 3 4 3 3 3 3 3 3 3 3 3 3 2 4 4 4 4 4 5 5 5 5 5 4 4 4 4 4 5 6 5 5 5 5 4 4 4 5 5 5 5 4
3 3 3 3 3 3 3 3 4 4 4 4 3 3 5 5 4 4 4 4 4 4 4 4 4 4 4 4 5 5 5 5 5 5 5 5 5 5 5 5 5 5 5
4 4 3 3 3 3 4 3 3 3 4 4 3 3 4 4 4 4 4 4 4 4 4 4 4 4 4 4 5 5 5 5 5 5 5 5 5 5 5 5 6 5 5
3 4 4 3 3 3 4 3 3 3 3 4 4 4 4 4 4 4 4 4 4 4 4 4 5 5 6 5 4 4 5 4 5 5 6 6 5 5 5 5 5 6 6
3 3 3 3 3 3 4 4 4 4 3 4 4 4 4 4 4 4 4 4 4 4 5 4 4 5 6 6 5 4 3 3 4 4 4 5 5 5 5 5 5 5 5
3 3 3 3 3 3 4 4 4 4 4 3 3 3 4 4 4 4 4 4 4 4 4 4 5 5 6 5 5 4 3 4 5 5 5 4 5 5 5 5 6 5 5
Wind_Direction
209 211 210 213 212 211 217 218 219 217 214 217 220 225 223 217 211 208 218 215 216 208 205 208 211 213 216 218 222 234 246 258 254 243 233 212 209 228 196 230 223 211 173
209 211 214 213 213 215 217 217 216 218 219 225 225 228 225 222 220 215 212 214 216 218 215 214 215 206 217 224 226 229 227 242 247 247 232 221 229 231 235 235 230 227 223
205 210 210 211 214 218 217 217 218 219 221 222 224 228 225 222 218 221 219 217 217 222 225 225 225 218 220 218 228 237 233 229 240 242 237 227 232 229 232 232 228 230 236
205 210 215 215 214 218 217 217 221 222 226 226 226 226 227 224 220 219 220 223 224 226 230 231 234 232 231 229 229 235 232 223 228 234 236 231 228 223 232 236 230 219 232
211 216 221 222 216 217 216 220 224 226 231 230 230 229 225 224 225 224 219 224 228 229 230 231 234 248 283 263 253 238 229 228 225 230 236 236 230 223 230 235 244 244 233
218 221 221 222 216 215 218 220 225 226 228 228 230 230 225 223 204 225 239 227 230 230 232 231 221 217 215 218 235 250 258 247 242 239 241 241 239 236 237 240 243 245 240
219 219 213 214 212 214 216 219 221 223 223 226 227 227 227 215 191 207 229 240 237 237 235 233 230 226 225 226 213 214 227 239 252 259 254 252 246 238 235 236 238 248 259
220 221 216 215 216 215 214 216 222 224 220 223 227 227 230 218 195 205 217 233 238 238 237 238 234 231 228 239 235 229 232 228 230 238 248 253 253 251 244 244 247 251 253
228 230 221 215 215 217 214 215 219 223 224 224 226 226 224 215 195 201 216 227 231 233 234 239 245 242 213 225 234 235 233 228 211 230 270 273 296 279 254 232 226 229 237
240 246 229 217 212 215 219 218 215 215 218 222 224 226 223 223 190 195 217 228 231 231 231 229 234 245 218 218 228 234 239 238 227 212 214 214 222 209 211 229 234 234 240
249 247 235 224 220 220 218 216 212 209 210 216 219 223 223 222 193 193 212 234 232 231 230 230 222 196 214 226 239 241 245 254 243 239 234 231 226 223 214 219 230 237 242
246 242 238 229 218 213 211 213 212 206 205 212 216 220 225 214 208 193 203 230 253 243 243 240 221 192 210 223 228 227 228 241 241 236 232 232 232 229 225 221 224 232 247
240 238 237 231 218 212 206 205 207 206 212 215 215 220 218 218 193 189 200 212 230 246 252 258 244 218 217 217 209 213 219 228 230 232 234 235 237 236 226 227 230 232 239
238 242 237 231 223 216 208 204 206 209 214 215 215 218 218 215 213 203 201 202 204 222 231 210 210 229 235 228 215 216 226 230 234 235 239 239 236 226 223 224 225 220 229
243 243 242 239 229 218 207 220 224 224 233 227 224 219 218 222 211 196 218 220 220 223 223 225 226 221 229 226 222 224 225 222 225 231 234 232 230 228 224 226 229 227 234
248 248 243 240 229 220 210 206 19 257 160 250 273 252 235 224 168 181 202 211 211 198 219 228 231 233 237 236 230 228 227 227 230 231 230 230 228 225 224 224 225 230 233
255 253 247 241 232 226 221 216 210 193 172 207 226 228 233 203 192 196 196 191 194 193 225 236 239 242 245 247 243 237 234 233 234 234 233 231 231 229 226 223 225 230 235
261 255 246 241 237 232 228 225 224 218 212 218 211 211 207 194 189 187 181 179 204 212 234 238 240 242 242 244 246 241 238 234 231 233 233 230 229 229 229 229 228 232 235
267 257 246 245 242 238 231 225 224 225 225 220 212 197 191 188 181 184 184 212 223 228 237 242 241 241 242 242 245 244 240 237 234 232 232 231 230 231 233 233 235 234 239
267 274 262 247 241 238 234 229 227 225 224 219 220 214 184 188 201 194 205 221 227 232 237 239 239 241 241 239 238 238 236 235 236 235 233 232 232 233 236 236 234 235 234
273 260 246 247 245 241 237 235 233 229 228 226 227 211 194 209 216 215 214 220 227 233 237 238 236 235 237 236 236 237 236 234 232 233 229 228 226 227 233 236 234 236 239
271 267 253 248 247 246 245 241 238 235 234 235 234 203 193 217 221 222 223 226 229 235 238 238 237 236 234 233 233 236 237 233 230 229 229 229 228 228 232 234 232 231 233
263 261 256 252 249 243 241 242 241 242 239 236 230 220 211 224 226 227 230 232 230 231 231 230 233 233 235 235 234 235 239 236 229 226 225 227 229 229 226 228 229 230 229
266 257 255 255 254 252 248 246 244 245 245 241 234 230 226 229 231 232 237 239 237 236 236 236 238 237 239 241 240 239 243 242 233 227 224 224 224 226 228 226 228 229 229
267 265 261 258 256 256 255 250 246 243 244 246 241 234 233 232 232 231 235 236 237 239 239 239 241 241 240 243 246 247 240 226 225 231 224 222 222 223 223 225 224 225 226
263 263 264 263 260 258 257 253 246 246 246 249 248 245 242 238 236 234 234 234 234 236 237 238 243 246 245 242 243 242 225 210 207 219 226 223 221 220 220 222 221 222 220